BTI786 EYPA-EETN

Flight info

Callsign BTI786
Flight time 0h 49m
Altitude 35000
Route XARIN DCT ASKOR DCT KEMET
Aircraft A20N/M-SDE2E3FGHIRWXY/LB1

Departure

Time 2026-04-15 10:57
Airport Palanga International Airport (EYPA)

Arrival

Time 2026-04-15 11:47
Airport Lennart Meri Tallinn Airport (EETN)
Time Latitude Longitude Altitude Speed Heading
2026-04-15 10:38 55.96933 21.09593 34 ft 0 kts 288°
2026-04-15 10:47 55.96933 21.09592 34 ft 0 kts 288°
2026-04-15 10:47 55.96936 21.09577 33 ft 3 kts 287°
2026-04-15 10:48 55.96943 21.09535 32 ft 1 kts 285°
2026-04-15 10:48 55.96944 21.09512 32 ft 1 kts 276°
2026-04-15 10:48 55.96948 21.09500 32 ft 1 kts 312°
2026-04-15 10:48 55.96957 21.09495 31 ft 2 kts
2026-04-15 10:49 55.96970 21.09512 32 ft 2 kts 44°
2026-04-15 10:49 55.96989 21.09522 32 ft 3 kts 12°
2026-04-15 10:49 55.97015 21.09532 32 ft 3 kts 12°
2026-04-15 10:49 55.97042 21.09543 32 ft 3 kts 12°
2026-04-15 10:50 55.97065 21.09552 31 ft 2 kts
2026-04-15 10:50 55.97079 21.09532 31 ft 3 kts 306°
2026-04-15 10:50 55.97089 21.09489 29 ft 3 kts 281°
2026-04-15 10:50 55.97094 21.09442 28 ft 3 kts 282°
2026-04-15 10:51 55.97100 21.09395 27 ft 3 kts 282°
2026-04-15 10:51 55.97106 21.09348 26 ft 3 kts 282°
2026-04-15 10:51 55.97108 21.09330 26 ft 2 kts 276°
2026-04-15 10:51 55.97098 21.09297 26 ft 3 kts 217°
2026-04-15 10:52 55.97090 21.09292 26 ft 1 kts 194°
2026-04-15 10:52 55.97104 21.09298 26 ft 2 kts 192°
2026-04-15 10:52 55.97119 21.09304 26 ft 2 kts 193°
2026-04-15 10:52 55.97134 21.09310 25 ft 2 kts 192°
2026-04-15 10:53 55.97148 21.09316 25 ft 2 kts 192°
2026-04-15 10:53 55.97163 21.09322 25 ft 2 kts 192°
2026-04-15 10:53 55.97177 21.09327 25 ft 2 kts 192°
2026-04-15 10:53 55.97192 21.09333 25 ft 2 kts 192°
2026-04-15 10:54 55.97207 21.09339 25 ft 2 kts 192°
2026-04-15 10:54 55.97221 21.09345 25 ft 2 kts 192°
2026-04-15 10:54 55.97236 21.09350 25 ft 2 kts 192°
2026-04-15 10:54 55.97250 21.09356 25 ft 2 kts 192°
2026-04-15 10:55 55.97265 21.09362 25 ft 2 kts 192°
2026-04-15 10:55 55.97279 21.09368 25 ft 1 kts 192°
2026-04-15 10:55 55.97281 21.09368 25 ft 0 kts 192°
2026-04-15 10:56 55.97280 21.09368 25 ft 0 kts 192°
2026-04-15 10:57 55.97102 21.09298 26 ft 67 kts 192°
2026-04-15 10:57 55.95431 21.08626 653 ft 144 kts 191°
2026-04-15 10:57 55.94459 21.08244 1378 ft 146 kts 191°
2026-04-15 10:58 55.93484 21.07854 2080 ft 151 kts 190°
2026-04-15 10:58 55.92387 21.07417 2593 ft 172 kts 190°
2026-04-15 10:58 55.91181 21.06934 3204 ft 189 kts 190°
2026-04-15 10:58 55.89851 21.06395 3898 ft 204 kts 190°
2026-04-15 10:59 55.88473 21.05977 4772 ft 207 kts 176°
2026-04-15 10:59 55.87150 21.06772 5718 ft 207 kts 144°
2026-04-15 10:59 55.86250 21.08760 6603 ft 215 kts 114°
2026-04-15 10:59 55.86084 21.11395 7435 ft 229 kts 81°
2026-04-15 11:00 55.86835 21.13911 8228 ft 241 kts 44°
2026-04-15 11:00 55.88230 21.15615 9010 ft 249 kts 33°
2026-04-15 11:00 55.89710 21.17262 9757 ft 255 kts 33°
2026-04-15 11:00 55.91186 21.18944 10548 ft 259 kts 33°
2026-04-15 11:01 55.92707 21.20699 11329 ft 262 kts 33°
2026-04-15 11:01 55.94234 21.22468 12076 ft 267 kts 33°
2026-04-15 11:01 55.95780 21.24265 12812 ft 272 kts 33°
2026-04-15 11:01 55.97378 21.26128 13520 ft 276 kts 32°
2026-04-15 11:02 55.98981 21.27996 14226 ft 280 kts 32°
2026-04-15 11:02 56.00612 21.29897 14944 ft 284 kts 32°
2026-04-15 11:02 56.02248 21.31808 15651 ft 287 kts 32°
2026-04-15 11:02 56.03899 21.33877 16283 ft 294 kts 44°
2026-04-15 11:03 56.05135 21.36827 16664 ft 306 kts 64°
2026-04-15 11:03 56.06046 21.40317 17031 ft 322 kts 68°
2026-04-15 11:03 56.06956 21.44085 17354 ft 339 kts 68°
2026-04-15 11:03 56.07946 21.48029 17663 ft 356 kts 66°
2026-04-15 11:04 56.09022 21.52132 17965 ft 373 kts 66°
2026-04-15 11:04 56.10163 21.56365 18364 ft 384 kts 65°
2026-04-15 11:04 56.11341 21.60634 18974 ft 389 kts 65°
2026-04-15 11:04 56.12553 21.64997 19618 ft 392 kts 64°
2026-04-15 11:05 56.13767 21.69397 20276 ft 395 kts 65°
2026-04-15 11:05 56.14966 21.73776 20924 ft 398 kts 65°
2026-04-15 11:05 56.16189 21.78260 21524 ft 401 kts 65°
2026-04-15 11:05 56.17413 21.82763 22146 ft 404 kts 65°
2026-04-15 11:06 56.18638 21.87265 22760 ft 407 kts 65°
2026-04-15 11:06 56.19879 21.91830 23368 ft 409 kts 65°
2026-04-15 11:06 56.21343 21.96210 23924 ft 414 kts 52°
2026-04-15 11:06 56.23381 21.99827 24527 ft 417 kts 37°
2026-04-15 11:07 56.25828 22.02532 25099 ft 419 kts 28°
2026-04-15 11:07 56.28426 22.05004 25635 ft 423 kts 27°
2026-04-15 11:07 56.31021 22.07434 26119 ft 427 kts 27°
2026-04-15 11:07 56.33663 22.09924 26615 ft 430 kts 27°
2026-04-15 11:08 56.36288 22.12424 27065 ft 434 kts 28°
2026-04-15 11:08 56.38966 22.14995 27528 ft 437 kts 28°
2026-04-15 11:08 56.41648 22.17585 27975 ft 440 kts 28°
2026-04-15 11:08 56.44342 22.20197 28392 ft 443 kts 28°
2026-04-15 11:09 56.47041 22.22822 28793 ft 446 kts 28°
2026-04-15 11:09 56.49775 22.25486 29187 ft 448 kts 28°
2026-04-15 11:09 56.52516 22.28164 29563 ft 450 kts 29°
2026-04-15 11:09 56.55260 22.30847 29901 ft 453 kts 29°
2026-04-15 11:10 56.58015 22.33550 30332 ft 453 kts 29°
2026-04-15 11:10 56.60778 22.36264 30822 ft 452 kts 29°
2026-04-15 11:10 56.63540 22.38981 31237 ft 450 kts 29°
2026-04-15 11:10 56.66270 22.41674 31590 ft 450 kts 30°
2026-04-15 11:11 56.68994 22.44365 31942 ft 450 kts 29°
2026-04-15 11:11 56.71719 22.47061 32307 ft 449 kts 30°
2026-04-15 11:11 56.74483 22.49800 32684 ft 448 kts 30°
2026-04-15 11:11 56.77171 22.52471 33050 ft 447 kts 29°
2026-04-15 11:12 56.79915 22.55198 33399 ft 446 kts 29°
2026-04-15 11:12 56.82594 22.57866 33665 ft 446 kts 29°
2026-04-15 11:12 56.85315 22.60581 33899 ft 447 kts 29°
2026-04-15 11:12 56.88045 22.63308 34125 ft 448 kts 29°
2026-04-15 11:13 56.90759 22.66027 34356 ft 449 kts 30°
2026-04-15 11:13 56.93483 22.68770 34569 ft 450 kts 30°
2026-04-15 11:13 56.96220 22.71534 34773 ft 451 kts 30°
2026-04-15 11:13 56.98956 22.74297 34974 ft 452 kts 30°
2026-04-15 11:14 57.01695 22.77066 35155 ft 452 kts 30°
2026-04-15 11:14 57.04442 22.79842 35210 ft 453 kts 30°
2026-04-15 11:14 57.09949 22.85415 35231 ft 453 kts 30°
2026-04-15 11:15 57.15443 22.90964 35241 ft 453 kts 30°
2026-04-15 11:15 57.20954 22.96557 35253 ft 453 kts 30°
2026-04-15 11:16 57.26423 23.02141 35250 ft 453 kts 30°
2026-04-15 11:16 57.31956 23.07815 35254 ft 454 kts 30°
2026-04-15 11:17 57.37437 23.13455 35260 ft 453 kts 30°
2026-04-15 11:17 57.42923 23.19119 35265 ft 454 kts 30°
2026-04-15 11:18 57.48398 23.24794 35255 ft 453 kts 31°
2026-04-15 11:18 57.53889 23.30506 35256 ft 453 kts 31°
2026-04-15 11:19 57.59378 23.36236 35263 ft 454 kts 31°
2026-04-15 11:19 57.64834 23.41949 35259 ft 454 kts 31°
2026-04-15 11:20 57.70332 23.47728 35266 ft 454 kts 31°
2026-04-15 11:20 57.75824 23.53518 35280 ft 455 kts 31°
2026-04-15 11:21 57.81271 23.59283 35207 ft 451 kts 31°
2026-04-15 11:21 57.83993 23.62170 34878 ft 448 kts 31°
2026-04-15 11:21 57.86681 23.65027 34366 ft 449 kts 32°
2026-04-15 11:22 57.89391 23.67921 33880 ft 448 kts 32°
2026-04-15 11:22 57.92061 23.70786 33378 ft 446 kts 32°
2026-04-15 11:22 57.94772 23.73697 32774 ft 447 kts 32°
2026-04-15 11:22 57.97455 23.76577 32109 ft 448 kts 32°
2026-04-15 11:23 58.00155 23.79477 31427 ft 450 kts 32°
2026-04-15 11:23 58.02866 23.82392 30729 ft 452 kts 32°
2026-04-15 11:23 58.05564 23.85302 30006 ft 453 kts 32°
2026-04-15 11:23 58.08278 23.88232 29346 ft 451 kts 32°
2026-04-15 11:24 58.10974 23.91140 28855 ft 446 kts 32°
2026-04-15 11:24 58.13665 23.94033 28341 ft 441 kts 32°
2026-04-15 11:24 58.16303 23.96873 27800 ft 438 kts 32°
2026-04-15 11:24 58.18939 23.99727 27272 ft 433 kts 32°
2026-04-15 11:25 58.21500 24.02506 26760 ft 429 kts 32°
2026-04-15 11:25 58.24078 24.05311 26491 ft 419 kts 32°
2026-04-15 11:25 58.26546 24.08003 26276 ft 407 kts 32°
2026-04-15 11:25 58.28966 24.10646 26064 ft 396 kts 32°
2026-04-15 11:26 58.31294 24.13194 25858 ft 385 kts 32°
2026-04-15 11:26 58.33557 24.15677 25654 ft 374 kts 32°
2026-04-15 11:26 58.35791 24.18130 25458 ft 364 kts 32°
2026-04-15 11:26 58.37948 24.20503 25256 ft 354 kts 32°
2026-04-15 11:27 58.40052 24.22823 24936 ft 348 kts 32°
2026-04-15 11:27 58.42132 24.25119 24542 ft 345 kts 32°
2026-04-15 11:27 58.44173 24.27376 24140 ft 342 kts 32°
2026-04-15 11:27 58.46223 24.29644 23741 ft 340 kts 31°
2026-04-15 11:28 58.48258 24.31899 23333 ft 337 kts 31°
2026-04-15 11:28 58.50274 24.34138 22927 ft 335 kts 31°
2026-04-15 11:28 58.52281 24.36368 22524 ft 332 kts 31°
2026-04-15 11:28 58.54241 24.38549 22125 ft 330 kts 31°
2026-04-15 11:29 58.56222 24.40756 21752 ft 328 kts 31°
2026-04-15 11:29 58.58181 24.42941 21351 ft 326 kts 31°
2026-04-15 11:29 58.60128 24.45117 20943 ft 324 kts 30°
2026-04-15 11:29 58.62056 24.47274 20573 ft 321 kts 30°
2026-04-15 11:30 58.63963 24.49410 20186 ft 319 kts 30°
2026-04-15 11:30 58.65857 24.51536 19803 ft 317 kts 30°
2026-04-15 11:30 58.67767 24.53680 19422 ft 315 kts 30°
2026-04-15 11:30 58.69624 24.55765 19043 ft 313 kts 29°
2026-04-15 11:31 58.71530 24.57722 18652 ft 310 kts 18°
2026-04-15 11:31 58.73634 24.58425 18282 ft 305 kts 355°
2026-04-15 11:31 58.75701 24.57999 17943 ft 301 kts 350°
2026-04-15 11:31 58.77770 24.57408 17546 ft 300 kts 349°
2026-04-15 11:32 58.79798 24.56834 17194 ft 298 kts 350°
2026-04-15 11:32 58.81862 24.56271 16851 ft 295 kts 351°
2026-04-15 11:32 58.83780 24.55770 16982 ft 269 kts 351°
2026-04-15 11:32 58.85604 24.55302 16725 ft 260 kts 351°
2026-04-15 11:33 58.87359 24.54851 16354 ft 257 kts 351°
2026-04-15 11:33 58.89130 24.54395 15921 ft 256 kts 351°
2026-04-15 11:33 58.90872 24.53947 15507 ft 254 kts 351°
2026-04-15 11:33 58.92611 24.53500 15092 ft 252 kts 352°
2026-04-15 11:34 58.94350 24.53054 14678 ft 251 kts 352°
2026-04-15 11:34 58.96069 24.52609 14258 ft 249 kts 352°
2026-04-15 11:34 58.97757 24.52171 13854 ft 248 kts 352°
2026-04-15 11:34 58.99449 24.51733 13441 ft 246 kts 352°
2026-04-15 11:35 59.01142 24.51297 13040 ft 244 kts 352°
2026-04-15 11:35 59.02799 24.50870 12633 ft 242 kts 352°
2026-04-15 11:35 59.04470 24.50440 12235 ft 240 kts 352°
2026-04-15 11:35 59.06101 24.50020 11847 ft 239 kts 352°
2026-04-15 11:36 59.07748 24.49595 11453 ft 237 kts 352°
2026-04-15 11:36 59.09359 24.49180 11068 ft 236 kts 352°
2026-04-15 11:36 59.10965 24.48767 10679 ft 234 kts 353°
2026-04-15 11:36 59.12583 24.48351 10334 ft 231 kts 353°
2026-04-15 11:37 59.14170 24.47942 10284 ft 232 kts 353°
2026-04-15 11:37 59.15778 24.47526 10262 ft 230 kts 353°
2026-04-15 11:37 59.17337 24.47122 9947 ft 228 kts 353°
2026-04-15 11:37 59.18899 24.46717 9511 ft 229 kts 353°
2026-04-15 11:38 59.20476 24.46307 9115 ft 228 kts 353°
2026-04-15 11:38 59.22037 24.45898 8738 ft 226 kts 353°
2026-04-15 11:38 59.23573 24.45496 8358 ft 224 kts 353°
2026-04-15 11:38 59.25098 24.45096 7985 ft 222 kts 353°
2026-04-15 11:39 59.26555 24.44713 7719 ft 202 kts 353°
2026-04-15 11:39 59.27920 24.44354 7260 ft 194 kts 354°
2026-04-15 11:39 59.29236 24.44010 6730 ft 192 kts 354°
2026-04-15 11:39 59.30548 24.43667 6191 ft 190 kts 354°
2026-04-15 11:40 59.31836 24.43331 5664 ft 189 kts 354°
2026-04-15 11:40 59.33122 24.43074 5344 ft 186 kts 358°
2026-04-15 11:40 59.34429 24.43003 5305 ft 187 kts
2026-04-15 11:40 59.35726 24.42991 5266 ft 185 kts
2026-04-15 11:41 59.36995 24.42984 4887 ft 182 kts
2026-04-15 11:41 59.38249 24.42979 4327 ft 184 kts
2026-04-15 11:41 59.39514 24.43090 3793 ft 181 kts 14°
2026-04-15 11:41 59.40585 24.44206 3387 ft 168 kts 45°
2026-04-15 11:42 59.41118 24.45989 3290 ft 144 kts 74°
2026-04-15 11:42 59.41283 24.47849 3089 ft 136 kts 84°
2026-04-15 11:42 59.41365 24.49702 2670 ft 138 kts 85°
2026-04-15 11:42 59.41424 24.51566 2338 ft 135 kts 87°
2026-04-15 11:43 59.41454 24.53433 2251 ft 137 kts 88°
2026-04-15 11:43 59.41453 24.55372 2341 ft 153 kts 90°
2026-04-15 11:43 59.41433 24.57505 2805 ft 150 kts 90°
2026-04-15 11:43 59.41405 24.59494 2897 ft 151 kts 90°
2026-04-15 11:44 59.41389 24.61604 2630 ft 156 kts 90°
2026-04-15 11:44 59.41381 24.63781 2207 ft 163 kts 90°
2026-04-15 11:44 59.41376 24.66016 1745 ft 168 kts 91°
2026-04-15 11:44 59.41371 24.68267 1385 ft 161 kts 90°
2026-04-15 11:45 59.41363 24.70410 1210 ft 154 kts 90°
2026-04-15 11:45 59.41351 24.72470 980 ft 153 kts 90°
2026-04-15 11:45 59.41339 24.74603 869 ft 157 kts 89°
2026-04-15 11:45 59.41340 24.76820 595 ft 172 kts 88°
2026-04-15 11:46 59.41340 24.79229 407 ft 173 kts 88°
2026-04-15 11:46 59.41335 24.81527 183 ft 163 kts 89°
2026-04-15 11:46 59.41325 24.83562 152 ft 138 kts 89°
2026-04-15 11:46 59.41325 24.85033 151 ft 75 kts 91°
2026-04-15 11:47 59.41332 24.85882 148 ft 38 kts 46°
2026-04-15 11:47 59.41470 24.85740 147 ft 26 kts 304°
2026-04-15 11:47 59.41496 24.85332 147 ft 34 kts 274°
2026-04-15 11:47 59.41495 24.84903 150 ft 29 kts 271°
2026-04-15 11:48 59.41498 24.84518 150 ft 27 kts 270°
2026-04-15 11:48 59.41498 24.84150 150 ft 26 kts 271°
2026-04-15 11:48 59.41497 24.83792 150 ft 25 kts 270°
2026-04-15 11:48 59.41499 24.83452 150 ft 24 kts 270°
2026-04-15 11:49 59.41500 24.83108 147 ft 24 kts 271°
2026-04-15 11:49 59.41501 24.82776 147 ft 24 kts 270°
2026-04-15 11:49 59.41503 24.82453 147 ft 23 kts 270°
2026-04-15 11:49 59.41503 24.82135 147 ft 23 kts 271°
2026-04-15 11:50 59.41504 24.81826 147 ft 22 kts 270°
2026-04-15 11:50 59.41505 24.81523 147 ft 22 kts 270°
2026-04-15 11:50 59.41506 24.81255 151 ft 18 kts 270°
2026-04-15 11:50 59.41507 24.81012 154 ft 16 kts 270°
2026-04-15 11:51 59.41507 24.80794 154 ft 15 kts 271°
2026-04-15 11:51 59.41509 24.80582 154 ft 14 kts 276°
2026-04-15 11:51 59.41525 24.80389 154 ft 13 kts 276°
2026-04-15 11:51 59.41562 24.80286 155 ft 8 kts 348°
2026-04-15 11:52 59.41582 24.80282 155 ft 0 kts 358°